Location: Sternwarte ZA, Rosenfeld-Brittheim
(48.2889°N, 8.6789°E)
Time: 09:34:18
(UTC+02:00)

ISS - Pass Details

Date: 25 May 2018
Orbit: 402 x 407 km, 51.6° (Epoch: 27 May)

Event Time Altitude Azimuth Distance (km) Brightness Sun altitude
Rises 21:58:18 0° 248° (WSW) 2,315 0.4 -7.0°
Reaches altitude 10° 22:00:22 10° 248° (WSW) 1,457 -0.7 -7.3°
Maximum altitude 22:03:38 87° 333° (NNW) 409 -3.8 -7.7°
Drops below altitude 10° 22:06:55 10° 68° (ENE) 1,461 -1.2 -8.1°
Sets 22:09:00 0° 69° (ENE) 2,321 -0.2 -8.3°
